Regional Weather Roundup
Issued by NWS

Home | Current Version | Previous Version | Text Only | Print | Product List | Glossary On
Versions: 1 2 3 4 5 6 7 8 9 10 11 12 13 14 15 16 17 18 19 20 21 22 23 24 25 26 27 28 29 30 31 32 33 34 35 36 37 38 39 40 41 42 43 44 45 46 47 48 49 50
000
ASUS44 KLIX 292010
RWRLA
LOUISIANA WEATHER ROUNDUP
NATIONAL WEATHER SERVICE NEW ORLEANS LA
200 PM CST THU JAN 29 2015

NOTE: "FAIR" INDICATES FEW OR NO CLOUDS BELOW 12,000 FEET WITH NO
      SIGNIFICANT WEATHER AND/OR OBSTRUCTIONS TO VISIBILITY.
      SKY/WX - SKY CONDITION AND SIGNIFICANT WEATHER.
      TMP - AIR TEMPERATURE.    DP   - DEWPOINT TEMPERATURE.
      RH  - RELATIVE HUMIDITY.  PRES - PRESSURE.
      HX  - HEAT INDEX.         WCI  - WIND CHILL INDEX.

*  THESE STATIONS ARE NOT NWS OR FAA STATIONS AND ARE NOT UNDER
   NWS QUALITY CONTROL.

LAZ040-048-061>063-065-066-069-292100-
SOUTHEAST LOUISIANA

CITY           SKY/WX    TMP DP  RH WIND       PRES   REMARKS
N.O. AUDUBON   NOT AVBL
N.O. INTL ARPT MOSUNNY   76  56  49 S10       30.19F
N.O. LAKEFRONT SUNNY     74  56  53 CALM      30.20F
N.O. DOWNTOWN* NOT AVBL
SLIDELL        SUNNY     72  56  57 SW13G18   30.19F
BATON ROUGE    SUNNY     77  52  41 W13       30.18F
BOOTHVILLE     SUNNY     70  56  61 S8        30.23F
BELLE CHASSE   PTSUNNY   76  55  48 SW9       30.20F
BOGALUSA*        N/A     77  53  43 SW9G16    30.19F
GALLIANO*      CLEAR     75  59  55 S10       30.22F
NEW ROADS*     FAIR      74  53  47 SW10      30.19F
GONZALES*      FAIR      75  57  52 S7        30.19F
HAMMOND*       SUNNY     77  50  38 SW14      30.19F
HOUMA*         MOSUNNY   73  57  56 SW12      30.21F
PORT FOURCHON* PTCLDY    72  61  68 S5        30.25F

$$

LAZ041-044-053-054-292100-
SOUTHWEST LOUISIANA

CITY           SKY/WX    TMP DP  RH WIND       PRES   REMARKS
LAKE CHARLES   SUNNY     74  56  53 W10       30.19F
LAFAYETTE      SUNNY     73  57  57 W8G20     30.20F
PATTERSON      MOSUNNY   73  57  56 SW13      30.22F
SALT POINT       N/A     66  61  84 SW7       30.21F
NEW IBERIA     SUNNY     75  56  51 SW9       30.21F
CHENAULT AIRPK NOT AVBL

$$

LAZ027-028-292100-
CENTRAL LOUISIANA

CITY           SKY/WX    TMP DP  RH WIND       PRES   REMARKS
FORT POLK      MOSUNNY   73  55  52 W7        30.17F
ALEXANDRIA INT SUNNY     73  54  51 W10       30.15F
ALEXANDRIA     SUNNY     74  53  48 W12G21    30.17F

$$

LAZ001-002-292100-
NORTHWEST LOUISIANA

CITY           SKY/WX    TMP DP  RH WIND       PRES   REMARKS
SHREVEPORT     MOSUNNY   75  49  39 NW8       30.16F
BARKSDALE AFB  SUNNY     73  47  39 NW10      30.16F
DTN SHREVEPORT SUNNY     72  47  40 W9        30.17F

$$

LAZ014-016-292100-
NORTHEAST LOUISIANA

CITY           SKY/WX    TMP DP  RH WIND       PRES   REMARKS
MONROE         MOSUNNY   72  53  51 W12       30.14F
TALLULAH       PTSUNNY   71  53  52 SW9       30.14F

$$



USA.gov is the U.S. government's official web portal to all federal, state and local government web resources and services.